Regional Weather Roundup
Issued by NWS

Home | Current Version | Previous Version | Text Only | Print | Product List | Glossary Off
Versions: 1 2 3 4 5 6 7 8 9 10 11 12 13 14 15 16 17 18 19 20 21 22 23 24 25 26 27 28 29 30 31 32 33 34 35 36 37 38 39 40 41 42 43 44 45 46 47 48 49 50

000
ASUS43 KMKX 210021
RWRWI

WISCONSIN REGIONAL WEATHER ROUNDUP
NATIONAL WEATHER SERVICE MILWAUKEE/SULLIVAN WI
700 PM CDT WED AUG 20 2014

NOTE: "FAIR" INDICATES FEW OR NO CLOUDS BELOW 12,000 FEET WITH NO
SIGNIFICANT WEATHER AND/OR OBSTRUCTIONS TO VISIBILITY.

WIZ001-002-006>008-014>016-023>028-210100-
NORTHWEST WISCONSIN

CITY           SKY/WX    TMP DP  RH WIND       PRES   REMARKS
SUPERIOR ARPT  CLOUDY    66  61  82 NE5       29.91F
6HR MIN TEMP:  66; 6HR MAX TEMP:  75;

ASHLAND        CLOUDY    67  61  81 NE6       29.94S
6HR MIN TEMP:  67; 6HR MAX TEMP:  72;

HAYWARD        CLOUDY    69  62  78 NE3       29.93S
6HR MIN TEMP:  68; 6HR MAX TEMP:  71;

SIREN          PTSUNNY   72  62  71 E7        29.89S
6HR MIN TEMP:  72; 6HR MAX TEMP:  76;

RICE LAKE      PTSUNNY   72  61  68 NE5       29.90F
6HR MIN TEMP:  71; 6HR MAX TEMP:  75; 6HR PCP:  0.01;

LADYSMITH      PTCLDY    71  63  73 NE3       29.93F
6HR MIN TEMP:  70; 6HR MAX TEMP:  73;

EAU CLAIRE     PTSUNNY   75  64  68 NE3       29.88R
6HR MIN TEMP:  72; 6HR MAX TEMP:  79;

MENOMONIE      MOCLDY    76  63  63 NE6       29.88S
6HR MIN TEMP:  74; 6HR MAX TEMP:  81;

NEW RICHMOND   PTSUNNY   74  64  71 E6        29.88R
6HR MIN TEMP:  74; 6HR MAX TEMP:  77;

OSCEOLA        PTSUNNY   76  65  68 E7        29.89S
6HR MIN TEMP:  75; 6HR MAX TEMP:  79;

$$

WIZ003>005-009-010-017-018-210100-
NORTH CENTRAL WISCONSIN

CITY           SKY/WX    TMP DP  RH WIND       PRES   REMARKS
WOODRUFF       CLOUDY    67  60  76 NE3       29.95S
6HR MIN TEMP:  67; 6HR MAX TEMP:  72;

RHINELANDER    CLOUDY    67  60  78 CALM      29.95S
6HR MIN TEMP:  66; 6HR MAX TEMP:  69;

EAGLE RIVER    CLOUDY    66  59  79 CALM      29.94S
6HR MIN TEMP:  66; 6HR MAX TEMP:  69;

LAND O LAKES   CLOUDY    65  62  90 N3        29.96S
6HR MIN TEMP:  64; 6HR MAX TEMP:  69;

PHILLIPS       CLOUDY    67  62  83 CALM      29.93S
6HR MIN TEMP:  67; 6HR MAX TEMP:  69;

TOMAHAWK       CLOUDY    67  60  79 CALM      29.94S
6HR MIN TEMP:  67; 6HR MAX TEMP:  71;

MEDFORD        PTCLDY    69  62  78 NE5       29.92F
6HR MIN TEMP:  67; 6HR MAX TEMP:  72;

MERRILL        CLOUDY    70  62  77 CALM      29.93S
6HR MIN TEMP:  68; 6HR MAX TEMP:  73;

$$

WIZ029-030-035-036-043>047-210100-
CENTRAL WISCONSIN

CITY           SKY/WX    TMP DP  RH WIND       PRES   REMARKS
WAUSAU         CLOUDY    73  60  63 CALM      29.90S
6HR MIN TEMP:  67; 6HR MAX TEMP:  75; 6HR PCP: TRACE;

MOSINEE        PTCLDY    72  63  73 VRB5      29.92S
MARSHFIELD     PTCLDY    74  62  66 NE6       29.91S
6HR MIN TEMP:  68; 6HR MAX TEMP:  77;

STEVENS POINT  PTCLDY    71  60  68 N3        29.91S
6HR MIN TEMP:  65; 6HR MAX TEMP:  73;

WAUPACA        PTCLDY    75  63  65 MISG      29.90S
6HR MIN TEMP:  73; 6HR MAX TEMP:  79;

WAUTOMA        PTCLDY    75  66  73 NE6       29.89S
6HR MIN TEMP:  76; 6HR MAX TEMP:  82;

WISC RAPIDS    PTCLDY    75  62  64 NE7       29.91S
6HR MIN TEMP:  72; 6HR MAX TEMP:  79;

CAMP DOUGLAS   NOT AVBL
$$

WIZ011>013-019>022-031-037>040-048>050-210100-
NORTHEAST WISCONSIN

CITY           SKY/WX    TMP DP  RH WIND       PRES   REMARKS
ANTIGO         CLOUDY    67  62  81 N3        29.94S
6HR MIN TEMP:  67; 6HR MAX TEMP:  71;

STURGEON BAY   CLEAR     70  61  73 NW3       29.92R
6HR MIN TEMP:  66; 6HR MAX TEMP:  72;

GREEN BAY      CLEAR     74  63  68 CALM      29.90F
6HR MIN TEMP:  68; 6HR MAX TEMP:  75;

MANITOWOC      PTCLDY    68  64  87 SE3       29.92S
6HR MIN TEMP:  68; 6HR MAX TEMP:  75;

APPLETON       PTCLDY    73  61  64 N8        29.91
CLINTONVILLE   CLEAR     72  61  68 NE5       29.90S
OSHKOSH        CLEAR     74  64  71 NE7       29.90R
6HR MIN TEMP:  73; 6HR MAX TEMP:  76;

$$

WIZ032>034-041-042-053>061-210100-
SOUTHWEST WISCONSIN

CITY           SKY/WX    TMP DP  RH WIND       PRES   REMARKS
LA CROSSE      CLOUDY    82  67  60 E5        29.86S HX  84
6HR MIN TEMP:  81; 6HR MAX TEMP:  85;

SPARTA         MOCLDY    79  64  59 CALM      29.89S HX  81
6HR MIN TEMP:  79; 6HR MAX TEMP:  82;

VIROQUA        FAIR      78  68  72 CALM      29.90S HX  80
6HR MIN TEMP:  77; 6HR MAX TEMP:  82;

BOSCOBEL       CLOUDY    82  68  62 W3        29.87S HX  85
6HR MIN TEMP:  82; 6HR MAX TEMP:  88;

PRAIRIE DU CHI MOCLDY    76  66  69 S7        29.87S
6HR MIN TEMP:  76; 6HR MAX TEMP:  85;

PLATTEVILLE    MOCLDY    76  69  79 SW12      29.92R
6HR MIN TEMP:  76; 6HR MAX TEMP:  83;

$$

WIZ056-057-062-063-064-067-068-210100-
SOUTH CENTRAL WISCONSIN

CITY           SKY/WX    TMP DP  RH WIND       PRES   REMARKS
BARABOO/DELLS  MOCLDY    80  63  56 CALM      29.88S HX  81
6HR MIN TEMP:  79; 6HR MAX TEMP:  85;

LONE ROCK      CLOUDY    86  68  54 CALM      29.87S HX  89
6HR MIN TEMP:  85; 6HR MAX TEMP:  90;

WATERTOWN      PTCLDY    79  66  63 CALM      29.88S HX  81
6HR MIN TEMP:  79; 6HR MAX TEMP:  83;

MADISON        CLOUDY    79  68  69 CALM      29.87F HX  81
6HR MIN TEMP:  79; 6HR MAX TEMP:  85;

MIDDLETON      FAIR      80  70  73 CALM      29.88F HX  83
6HR MIN TEMP:  80; 6HR MAX TEMP:  85;

MONROE         MOCLDY    79  68  69 SW8       29.90R HX  81
JANESVILLE     PTCLDY    82  64  54 W8        29.87F HX  84
$$

WIZ051-052-058>065-066-070>072-210100-
SOUTHEAST WISCONSIN

CITY           SKY/WX    TMP DP  RH WIND       PRES   REMARKS
MILWAUKEE      MOCLDY    70  65  84 E6        29.90R
6HR MIN TEMP:  70; 6HR MAX TEMP:  78;

WAUKESHA       MOCLDY    73  64  73 E7        29.91R
MILWAUKEE/TIMM CLEAR     73  61  64 E5        29.91R
RACINE         PTCLDY    71  66  84 E6        29.91R
6HR MIN TEMP:  71; 6HR MAX TEMP:  80;

BURLINGTON     PTCLDY    76  69  78 NW3       29.89S
6HR MIN TEMP:  76; 6HR MAX TEMP:  82;

KENOSHA        PTCLDY    74  69  85 NE8       29.89R
6HR MIN TEMP:  74; 6HR MAX TEMP:  84;

FOND DU LAC    CLEAR     74  64  71 MISG      29.90R
6HR MIN TEMP:  73; 6HR MAX TEMP:  78;

SHEBOYGAN      CLEAR     70  63  78 E5        29.91S
6HR MIN TEMP:  70; 6HR MAX TEMP:  78;

WEST BEND      CLEAR     70  61  73 E5        29.91R
JUNEAU         PTCLDY    76  43  30 N6        29.90R
6HR MIN TEMP:  76; 6HR MAX TEMP:  81;

$$

LSZ147-162-210100-
LAKE SUPERIOR

STATION/POSITION TIME  TEMP    WIND        PRES    WAVE
                       AIR SEA DIR/SP/G            HT/PER
                 (UTC) (F)     (DEG/KT/KT) (MB)    (FT/S)
W MID LAKE BUOY  2350   59 59  100/  2/  2 1013.7R   0
DEVILS ISLAND    0000   64      80/  8/  9 1013.4R
PORT WING        2300   70     140/  2/  4 1013.2S
SAXON HARBOR     2300   67      50/  3/  5 1013.5R
$$

LMZ867-665-643>646-210100-
LAKE MICHIGAN

STATION/POSITION TIME  TEMP    WIND        PRES    WAVE
                       AIR SEA DIR/SP/G            HT/PER
                 (UTC) (F)     (DEG/KT/KT) (MB)    (FT/S)
N MID LAKE BUOY  2350   63 63  220/  6/  6 1012.7R   1
NORTHPORT PIER   2300   65     140/  2/  4 1012.9R
SISTER BAY       2341   68        CALM       N/A
KEWAUNEE LAKESHO 2300   67     170/  4/  4 1011.9R
SHEBOYGAN LAKESH 0000   67 67  130/  2/  2 1012.8F
ATWATER BUOY     0000   69      60/  6/  6 1013.5R
MILWAUKEE LAKESH 0000   70      40/  2/  3   N/A
S MID LAKE BUOY  2350   69 68   60/  6/  6 1012.2R   0
KENOSHA   LAKESH 0000   71      60/  5/  6 1011.9R
$$

TC  - TEMPERATURE IN CELSIUS
VSB - VISIBILITY IN STATUTE MILES
WCI - WIND CHILL INDEX
HX  - HEAT INDEX




USA.gov is the U.S. government's official web portal to all federal, state and local government web resources and services.